Voltar ao catálogo

STARLINK-34934

AtivoComunicaçõesVLEO
NORAD 65897·PAYLOAD·🇺🇸 United States

Lançado Oct 7, 2025 de Cape Canaveral Space Force Station

Loading…

Próximas Passagens (próximas 24 horas)

TLE

AtualizadoSource: CelesTrak SupGP

Época: Sep 15, 2026, 02:35 UTC

1 65897C 25224R   26258.10812500 -.00065257  00000+0 -19282-2 0  2588
2 65897  53.1574 207.1054 0001313  87.7326  43.4373 15.34420953    13

Acompanhe STARLINK-34934 em tempo real com AllMySat

Download on the App Store